Location: Passau
(48.5830°N, 13.4830°E)
Time: 06:09:22
(UTC+02:00)

Vanguard 1 - Pass Details

Date: 30 July 2021
Orbit: 652 x 3831 km, 34.3° (Epoch: 16 September)

Event Time Altitude Azimuth Distance (km) Brightness Sun altitude
Rises 14:29:36 0° 248° (WSW) 3,573 13.4 56.0°
Reaches altitude 10° 14:32:02 10° 237° (WSW) 2,881 13.2 55.8°
Maximum altitude 14:38:09 31° 176° (S) 2,334 13.0 55.2°
Drops below altitude 10° 14:48:04 10° 121° (ESE) 4,757 13.6 54.1°
Sets 14:53:27 0° 114° (ESE) 6,335 14.1 53.5°
